Погода во Вьетчи

Вьетнам     21°18′17″N   105°24′36″E
темп.,
°C
ветер,
м/с
пор.,
м/с
влажн.,
%
обл.,
%
осадки,
мм/ч
давл.,
гПа
погр.,
м
10 августа, ср
ср1001:00+26сз23825 0.1 100144
04:00+25зсз3589100 0.0 1001120
07:00+26зсз468915 0.3 1002249
10:00+30зсз4472100 0.4 1002593
13:00+31с2367100 5.5 1000592
16:00+27ссв3581100 0.6 100081
19:00+25ссз2391100 1.6 100177
22:00+24сз3697100 1.9 1002267
11 августа, чт
чт1101:00+24з4999100 24.3 999421
04:00+24зсз4999100 29.3 998411
07:00+24з3699100 35.9 1000307
10:00+24з3796100 1.8 999401
13:00+24зюз4797100 20.1 999421
16:00+24ю2398100 5.4 1000216
19:00+24юв3599100 9.8 1002251
22:00+24вюв2695100 1.9 1005223
12 августа, пт
пт1201:00+24в2396100 2.3 100572
04:00+24всв1296100 0.9 100452
07:00+24ссв1396100 2.1 1006143
10:00+25в1395100 1.5 1007215
13:00+25в2394100 5.4 1005301
16:00+24юв1296100 2.4 1004121
19:00+24ююв1197100 2.9 100531
22:00+24ююв1196100 0.0 100716
13 августа, сб
сб1301:00+24ююв119742 0.0 100514
04:00+23сз119726 0.0 100511
07:00+24сз119357 0.0 1006181
10:00+29з117666 0.1 1006844
13:00+31ююз116457 0.1 10031245
16:00+32юв326533 0.0 10011150
19:00+28юв338116 0.3 100245
22:00+26вюв589483 4.4 1004224
14 августа, вс
вс1401:00+25в249895 12.8 1003163
04:00+25в1397100 1.3 1003106
07:00+26св119494 1.3 1004147
10:00+28юз1185100 0.4 1005485
13:00+29юв3381100 0.9 1003612
16:00+27вюв4692100 0.0 1003343
19:00+26в3797100 0.4 1003324
22:00+25всв3693100 0.2 1005251